Location: Jabiru
(12.6667°S, 132.8333°E)
Time: 18:11:30
(UTC+09:30)

Envisat - Pass Details

Date: 26 October 2019
Orbit: 764 x 766 km, 98.1° (Epoch: 19 November)

Event Time Altitude Azimuth Distance (km) Brightness Sun altitude
Rises 19:38:48 0° 178° (S) 3,244 6.4 -15.3°
Reaches altitude 10° 19:41:12 10° 184° (S) 2,313 5.7 -15.8°
Maximum altitude 19:46:04 47° 256° (WSW) 1,011 4.1 -17.0°
Drops below altitude 10° 19:50:54 10° 329° (NNW) 2,295 5.6 -18.1°
Sets 19:53:16 0° 335° (NNW) 3,215 6.3 -18.6°
